Weather in Agidel

Russia / Republic of Bashkortostan     55°53′59″N   53°55′19″E
temp.,
°C
wind,
m/s
gust,
m/s
humid.,
%
clouds,
%
prec.,
mm/h
press.,
hPa
HPBL,
m
3 march, wed
wed323:00−1wsw6119199 1.4 997441
02:00−2wsw5119698 0.1 997422
05:00−3wsw5109595 0.2 998370
08:00−5wsw479696 0.2 998190
11:00−4wsw469698 0.6 999262
14:00−3wsw4695100 0.1 999339
17:00−2wsw4696100 0.6 999446
20:00−3sw3797100 0.6 999264
4 march, thu
thu423:00−5nw61192100 1.3 1001495
02:00−8wnw51092100 0.1 1000329
05:00−12w499576 0.2 1001148
08:00−13sw489666 0.0 1001156
11:00−8sw6109383 0.4 1000511
14:00−4sw71191100 0.3 998686
17:00−3ssw81391100 0.4 996831
20:00−2sw81496100 1.4 993843
5 march, fri
fri523:00−4w7168384 3.5 993580
02:00−6wsw613907 0.0 995377
05:00−8wsw4109545 0.0 998278
08:00−10wsw3696100 0.0 999114
11:00−7wsw2495100 0.1 1000185
14:00−5w2290100 0.0 1000333
17:00−4n2394100 0.2 1000255
20:00−6nw3695100 0.3 1001221
6 march, sat
sat623:00−12nw5109195 0.3 1005221
02:00−17wnw46950 0.0 100976
05:00−19w34970 0.0 101239
08:00−20w33986 0.0 101323
11:00−16wsw23936 0.0 1013153
14:00−13wsw228650 0.0 1012293
17:00−12sw239062 0.0 1011232
20:00−17ssw229614 0.0 101020
7 march, sun
sun723:00−17sw239838 0.0 101024
02:00−16wsw349794 0.1 101086
05:00−17wsw339792 0.1 101161
08:00−19w229888 0.0 101120
11:00−17wsw239360 0.1 1012171
14:00−14sw459125 0.0 1012329
17:00−12ssw479151 0.0 1011477
20:00−14s489492 0.0 1011158